Flight Track Log - Related Links

Times and Time Zones

All times are in EDT time to prevent confusion due to time zone crossing. See the XOJ549 flight status page for this flight to view local times or setup timezone preferences in your user account.

Time Position Orientation Groundspeed Altitude Reporting Facility
EDT Latitude Longitude Course Direction KTS MPH feet Rate Location/Type
01:25PM 40.8667 -74.0500 360° North 177 204 1,300  Level New York TRACON
01:26PM 40.9167 -74.0500 360° North 204 235 4,100 2,350 Climbing New York TRACON
01:27PM 40.9333 -74.1333 285° West 237 273 6,000 950 Climbing New York TRACON
01:28PM 40.9167 -74.2167 255° West 281 323 6,000 300 Level New York TRACON
01:29PM 40.8500 -74.2333 191° South 269 310 6,600 2,300 Climbing New York TRACON
01:30PM 40.7667 -74.2500 189° South 276 318 10,600 3,750 Climbing New York TRACON
01:31PM 40.6833 -74.2167 163° South 331 381 14,100 3,200 Climbing New York TRACON
01:32PM 40.6000 -74.1667 156° South 362 417 17,000 1,450 Climbing New York TRACON
01:33PM 40.4833 -74.1500 174° South 402 463 17,000  Level New York TRACON
01:35PM 40.3475 -74.1858 191° South 395 455 17,000 1,840 Level New York Center
01:37PM 40.1169 -74.3056 202° Southwest 366 421 23,900 2,767 Climbing Washington Center
01:38PM 40.0303 -74.3911 217° Southwest 387 445 26,500 2,370 Climbing Washington Center
01:39PM 39.9417 -74.4819 218° Southwest 401 461 28,600 1,966 Climbing Washington Center
01:40PM 39.8611 -74.5617 217° Southwest 407 468 30,400 1,820 Climbing Washington Center
01:41PM 39.7681 -74.6519 217° Southwest 412 474 32,300 1,866 Climbing Washington Center
01:42PM 39.6731 -74.7450 217° Southwest 419 482 34,100 1,613 Climbing Washington Center
01:43PM 39.5778 -74.8403 218° Southwest 426 490 35,500 1,537 Climbing Washington Center
01:44PM 39.4825 -74.9356 218° Southwest 432 497 37,200 1,537 Climbing Washington Center
01:45PM 39.3892 -75.0278 217° Southwest 432 497 38,600 1,361 Climbing Washington Center
01:46PM 39.2875 -75.1142 213° Southwest 432 497 39,900 1,311 Climbing Washington Center
01:47PM 39.1772 -75.1658 200° South 426 490 41,200 1,091 Climbing Washington Center
01:48PM 39.0669 -75.2092 197° South 421 484 42,100 750 Climbing Washington Center
01:49PM 38.9567 -75.2581 199° South 426 490 42,700 446 Climbing Washington Center
01:50PM 38.8461 -75.3064 199° South 426 490 43,000 149 Climbing Washington Center
01:51PM 38.7294 -75.3494 196° South 432 497 43,000  Level Washington Center
01:52PM 38.6108 -75.4031 199° South 439 505 43,000  Level Washington Center
01:53PM 38.4878 -75.4511 197° South 451 519 43,000  Level Washington Center
01:54PM 38.3733 -75.5097 202° Southwest 451 519 43,000  Level Washington Center
01:55PM 38.2439 -75.5733 201° Southwest 456 525 43,000  Level Washington Center
01:56PM 38.1272 -75.6367 203° Southwest 456 525 43,000  Level Washington Center
01:57PM 38.0272 -75.6972 206° Southwest 456 525 43,000  Level Washington Center
01:58PM 37.9122 -75.7575 202° Southwest 456 525 43,000  Level Washington Center
01:59PM 37.7975 -75.8203 203° Southwest 456 525 43,000 -50 Level Washington Center
02:00PM 37.6806 -75.8806 202° Southwest 456 525 42,900  Descending Washington Center
02:01PM 37.5658 -75.9403 202° Southwest 456 525 43,000 50 Climbing Washington Center
02:02PM 37.4508 -76.0025 203° Southwest 456 525 43,000  Level Washington Center
02:03PM 37.3317 -76.0647 203° Southwest 456 525 43,000  Level Washington Center
02:04PM 37.2147 -76.1264 203° Southwest 456 525 43,000  Level Washington Center
02:05PM 37.0789 -76.1881 200° South 462 532 43,000  Level Washington Center
02:06PM 36.9658 -76.2494 203° Southwest 468 539 43,000  Level Washington Center
02:07PM 36.8486 -76.3083 202° Southwest 468 539 43,000  Level Washington Center
02:08PM 36.7314 -76.3694 203° Southwest 458 527 43,000  Level Washington Center
02:09PM 36.6119 -76.4356 204° Southwest 458 527 43,000  Level Washington Center
02:10PM 36.4969 -76.4936 202° Southwest 458 527 43,000  Level Washington Center
02:11PM 36.3797 -76.5542 203° Southwest 458 527 43,000  Level Washington Center
02:12PM 36.2622 -76.6122 202° Southwest 458 527 43,000  Level Washington Center
02:13PM 36.1469 -76.6697 202° Southwest 458 527 43,000  Level Washington Center
02:14PM 36.0275 -76.7297 202° Southwest 458 527 43,000  Level Washington Center
02:15PM 35.9103 -76.7844 201° Southwest 458 527 43,000  Level Washington Center
02:16PM 35.7947 -76.8467 204° Southwest 458 527 43,000  Level Washington Center
02:17PM 35.6753 -76.9064 202° Southwest 458 527 43,000  Level Washington Center
02:18PM 35.5767 -76.9558 202° Southwest 450 518 43,000  Level Washington Center
02:19PM 35.4569 -77.0150 202° Southwest 450 518 43,000  Level Washington Center
02:20PM 35.3394 -77.0739 202° Southwest 455 524 43,000  Level Washington Center
02:21PM 35.2239 -77.1303 202° Southwest 455 524 43,000  Level Washington Center
02:22PM 35.1083 -77.1892 203° Southwest 455 524 43,000  Level Washington Center
02:23PM 34.9928 -77.2450 202° Southwest 455 524 43,000  Level Washington Center
02:24PM 34.8753 -77.3033 202° Southwest 455 524 43,000  Level Washington Center
02:25PM 34.7514 -77.3639 202° Southwest 455 524 43,000  Level Washington Center
02:26PM 34.6378 -77.4197 202° Southwest 450 518 43,000  Level Washington Center
02:27PM 34.5200 -77.4700 199° South 450 518 43,000  Level Washington Center
02:28PM 34.3964 -77.5075 194° South 455 524 43,000  Level Washington Center
02:32PM 33.9461 -77.6433 194° South 482 555 43,000  Level Jacksonville Center
02:33PM 33.8247 -77.6781 193° South 477 549 43,000  Level Jacksonville Center
02:34PM 33.6969 -77.7206 195° South 470 541 43,000  Level Jacksonville Center
02:35PM 33.5878 -77.7544 194° South 470 541 43,000  Level Jacksonville Center
02:36PM 33.4619 -77.7914 194° South 470 541 43,000  Level Jacksonville Center
02:37PM 33.3364 -77.8311 195° South 470 541 43,000  Level Jacksonville Center
02:38PM 33.2128 -77.8703 195° South 470 541 43,000  Level Jacksonville Center
02:39PM 33.0867 -77.9022 192° South 470 541 43,000  Level Jacksonville Center
02:40PM 32.9650 -77.9386 194° South 470 541 43,000  Level Jacksonville Center
02:41PM 32.8392 -77.9753 194° South 470 541 43,000  Level Jacksonville Center
02:42PM 32.7133 -78.0167 195° South 470 541 43,000  Level Jacksonville Center
02:43PM 32.5897 -78.0528 194° South 470 541 43,000  Level Jacksonville Center
02:44PM 32.4636 -78.0892 194° South 470 541 43,000  Level Jacksonville Center
02:45PM 32.3375 -78.1228 193° South 470 541 43,000  Level Jacksonville Center
02:46PM 32.2161 -78.1636 196° South 464 534 43,000  Level Jacksonville Center
02:47PM 32.0922 -78.2017 195° South 464 534 43,000  Level Jacksonville Center
02:48PM 31.9661 -78.2353 193° South 469 540 43,000  Level Jacksonville Center
02:49PM 31.8300 -78.2786 195° South 469 540 43,000  Level Jacksonville Center
02:50PM 31.7061 -78.3142 194° South 463 533 43,000  Level Jacksonville Center
02:51PM 31.5800 -78.3519 194° South 474 545 43,000  Level Jacksonville Center
02:52PM 31.4558 -78.3850 193° South 467 537 43,000  Level Jacksonville Center
02:53PM 31.3281 -78.4250 195° South 475 547 43,000  Level Jacksonville Center
02:54PM 31.2058 -78.4578 193° South 460 529 43,000  Level Jacksonville Center
02:55PM 31.0781 -78.5000 196° South 465 535 43,000  Level Jacksonville Center
02:56PM 30.9558 -78.5300 192° South 463 533 43,000  Level Jacksonville Center
02:57PM 30.8361 -78.5669 195° South 464 534 43,000  Level Jacksonville Center
02:58PM 30.7036 -78.6019 193° South 471 542 43,000  Level Jacksonville Center
02:58PM 30.6008 -78.6289 193° South 466 536 43,000  Level Miami Center
02:59PM 30.4836 -78.6653 195° South 456 525 43,000  Level Miami Center
03:00PM 30.3561 -78.6992 193° South 462 532 43,000  Level Miami Center
03:01PM 30.2306 -78.7356 194° South 462 532 43,000  Level Miami Center
03:02PM 30.1092 -78.7717 194° South 462 532 43,000  Level Miami Center
03:03PM 29.9833 -78.8125 196° South 468 539 43,000  Level Miami Center
03:04PM 29.8642 -78.8536 197° South 468 539 43,000  Level Miami Center
03:05PM 29.7364 -78.8847 192° South 468 539 43,000  Level Miami Center
03:06PM 29.6108 -78.9133 191° South 463 533 43,000  Level Miami Center
03:07PM 29.4872 -78.9467 193° South 463 533 43,000  Level Miami Center
03:08PM 29.3658 -78.9803 194° South 456 525 43,000  Level Miami Center
03:09PM 29.2381 -79.0111 192° South 456 525 43,000  Level Miami Center
03:10PM 29.1206 -79.0539 198° South 456 525 43,000 -500 Level Miami Center
03:11PM 28.9908 -79.0797 190° South 456 525 42,000 -1,250 Descending Miami Center
03:12PM 28.8736 -79.1153 195° South 456 525 40,500 -2,000 Descending Miami Center
03:13PM 28.7497 -79.1506 194° South 456 525 38,000 -2,450 Descending Miami Center
03:14PM 28.6242 -79.1811 192° South 456 525 35,600 -2,350 Descending Miami Center
03:15PM 28.5067 -79.2142 194° South 451 519 33,300 -2,350 Descending Miami Center
03:16PM 28.3889 -79.2661 201° Southwest 456 525 30,900 -2,350 Descending Miami Center
03:17PM 28.2669 -79.3247 203° Southwest 470 541 28,600 -2,200 Descending Miami Center
03:18PM 28.1489 -79.3833 204° Southwest 475 547 26,500 -2,050 Descending Miami Center
03:19PM 28.0436 -79.4350 203° Southwest 451 519 24,500 -1,950 Descending Miami Center
03:20PM 27.9406 -79.4869 204° Southwest 429 494 22,600 -1,800 Descending Miami Center
03:21PM 27.8456 -79.5339 204° Southwest 394 453 20,900 -1,850 Descending Miami Center
03:22PM 27.7403 -79.5856 203° Southwest 378 435 18,900 -1,850 Descending Miami Center
03:23PM 27.6475 -79.6300 203° Southwest 378 435 17,200 -1,600 Descending Miami Center
03:24PM 27.5569 -79.6747 204° Southwest 367 422 15,700 -1,550 Descending Miami Center
03:25PM 27.4789 -79.7128 203° Southwest 353 406 14,100 -1,550 Descending Miami Center
03:26PM 27.3947 -79.7528 204° Southwest 339 390 12,600 -1,550 Descending Miami Center
03:27PM 27.3643 -79.7512 204° Southwest  Level FlightAware Approximate
03:27PM 27.3061 -79.7972 204° Southwest 323 372 11,000  Level Miami Center
03:28PM 27.2344 -79.8328 204° Southwest 303 349 9,700 -1,300 Descending Miami Center
03:29PM 27.1628 -79.8658 202° Southwest 287 330 8,400 -850 Descending Miami Center
03:30PM 27.0992 -79.9017 207° Southwest 280 322 8,000 -800 Descending Miami Center
03:31PM 27.0275 -79.9442 208° Southwest 275 316 6,800 -1,250 Descending Miami Center
03:32PM 26.9619 -79.9797 206° Southwest 262 302 5,500 -1,250 Descending Miami Center
03:33PM 26.9044 -80.0247 215° Southwest 262 302 4,300 -750 Descending Miami Center
03:34PM 26.8533 -80.0700 218° Southwest 262 302 4,000 -750 Descending Miami Center
03:35PM 26.8061 -80.1314 229° Southwest 262 302 2,800 -1,200 Descending Miami Center
03:37PM 26.7924 -80.2639 263° West  Level FlightAware Approximate
03:44PM 26.6832 -80.0956 110° East  Level Estimated
03:45PM 26.6832 -80.0956 110° East  Level Estimated
03:46PM 26.6832 -80.0956 110° East  Level Estimated
03:47PM 26.6832 -80.0956 110° East  Level Estimated
03:48PM 26.6832 -80.0956 110° East  Level Estimated
03:49PM 26.6832 -80.0956 110° East  Level Estimated

Login

Don't have an account? Register now (free) for customized features, flight alerts, and more!